Temp
-9 -9 -9 -10 -10 -10 -10 -10 -10 -10 -10 -10 -10 -9 -9 -10 -9 -9 -9 -9 -9 -9 -9 -9 -9 -8 -8 -8 -8 -8 -7 -7 -7 -7 -7 -7 -7 -7 -7 -7 -7 -7 -7
-9 -9 -10 -10 -10 -10 -10 -10 -10 -10 -10 -11 -11 -10 -10 -10 -10 -10 -10 -9 -9 -9 -9 -9 -8 -9 -9 -8 -8 -8 -8 -8 -7 -7 -7 -7 -7 -7 -7 -7 -7 -7 -7
-10 -10 -10 -10 -10 -10 -10 -10 -10 -10 -10 -10 -11 -11 -11 -10 -10 -10 -10 -10 -10 -9 -9 -9 -9 -8 -8 -8 -8 -8 -8 -8 -8 -8 -8 -8 -8 -8 -7 -7 -7 -7 -7
-10 -10 -10 -10 -10 -10 -10 -11 -11 -11 -11 -11 -11 -11 -11 -11 -10 -10 -10 -10 -10 -10 -10 -9 -9 -9 -9 -8 -9 -8 -9 -8 -8 -8 -8 -8 -8 -8 -8 -7 -7 -7 -7
-11 -11 -11 -10 -10 -10 -11 -11 -11 -11 -11 -11 -11 -11 -11 -11 -11 -10 -10 -10 -10 -10 -10 -10 -9 -9 -9 -9 -9 -8 -9 -9 -8 -8 -8 -8 -8 -8 -8 -8 -8 -8 -8
-11 -11 -11 -10 -10 -10 -11 -11 -11 -11 -11 -11 -11 -11 -11 -11 -11 -11 -11 -10 -10 -10 -10 -10 -10 -10 -10 -9 -9 -9 -9 -9 -8 -8 -8 -8 -8 -8 -8 -8 -8 -8 -8
-12 -11 -11 -11 -10 -10 -11 -11 -11 -11 -11 -11 -11 -11 -11 -11 -11 -11 -11 -11 -11 -10 -10 -10 -10 -10 -10 -10 -10 -10 -9 -9 -9 -9 -9 -8 -8 -8 -9 -9 -9 -9 -9
-12 -11 -11 -11 -10 -10 -11 -11 -11 -11 -11 -11 -11 -11 -11 -11 -11 -11 -11 -11 -11 -11 -11 -11 -10 -10 -10 -10 -10 -10 -10 -9 -9 -9 -9 -9 -9 -9 -9 -9 -9 -9 -9
-11 -11 -11 -11 -11 -11 -11 -11 -11 -11 -11 -11 -11 -11 -11 -11 -11 -11 -11 -11 -11 -11 -11 -11 -10 -10 -10 -10 -10 -10 -10 -10 -10 -9 -9 -9 -9 -9 -9 -9 -9 -10 -9
-11 -11 -11 -11 -11 -11 -11 -11 -11 -11 -11 -11 -11 -11 -11 -11 -12 -12 -12 -12 -11 -11 -11 -11 -11 -11 -11 -11 -11 -11 -10 -10 -10 -10 -10 -9 -10 -10 -9 -9 -9 -9 -10
-11 -11 -11 -11 -11 -11 -11 -11 -11 -11 -11 -11 -11 -12 -11 -11 -11 -12 -12 -12 -12 -12 -11 -11 -11 -11 -11 -10 -11 -10 -10 -10 -10 -10 -10 -10 -10 -10 -10 -10 -10 -10 -10
-12 -11 -11 -11 -11 -11 -11 -11 -11 -11 -11 -11 -11 -11 -11 -11 -12 -11 -12 -12 -12 -12 -12 -11 -11 -11 -10 -10 -10 -10 -10 -10 -10 -10 -10 -10 -10 -10 -10 -10 -10 -10 -10
-12 -12 -12 -12 -11 -11 -11 -12 -12 -12 -12 -12 -12 -12 -12 -11 -12 -12 -12 -12 -12 -12 -12 -12 -11 -11 -11 -11 -11 -11 -11 -11 -10 -10 -10 -10 -10 -10 -10 -10 -10 -10 -10
-12 -13 -12 -12 -12 -12 -12 -12 -12 -12 -12 -12 -12 -12 -12 -11 -12 -12 -12 -12 -12 -12 -12 -12 -12 -12 -11 -11 -11 -11 -11 -11 -11 -10 -10 -10 -10 -10 -10 -10 -10 -11 -11
-13 -12 -12 -12 -12 -12 -12 -12 -13 -13 -12 -12 -12 -12 -12 -12 -12 -12 -12 -12 -12 -12 -12 -12 -12 -12 -12 -11 -11 -11 -11 -11 -11 -11 -11 -11 -11 -11 -11 -11 -11 -11 -11
-13 -13 -12 -12 -12 -12 -13 -13 -13 -13 -13 -13 -12 -12 -12 -12 -12 -12 -12 -12 -12 -12 -12 -12 -12 -12 -12 -11 -11 -11 -11 -12 -12 -11 -11 -11 -11 -11 -11 -11 -11 -11 -11
-13 -13 -13 -12 -12 -13 -13 -13 -13 -13 -13 -13 -13 -12 -12 -12 -12 -12 -12 -12 -13 -12 -12 -12 -12 -12 -12 -12 -11 -12 -12 -12 -12 -12 -12 -12 -12 -12 -12 -12 -11 -11 -11
-14 -14 -13 -13 -13 -13 -13 -13 -13 -13 -13 -13 -13 -13 -13 -13 -13 -13 -13 -13 -13 -13 -12 -12 -12 -12 -12 -12 -12 -12 -12 -12 -12 -12 -12 -12 -12 -12 -12 -12 -12 -11 -12
-14 -14 -13 -13 -13 -13 -14 -13 -13 -13 -13 -13 -13 -13 -13 -13 -13 -13 -13 -13 -13 -13 -13 -13 -12 -12 -12 -12 -12 -12 -12 -12 -12 -12 -12 -12 -12 -12 -12 -12 -12 -12 -12
-13 -14 -14 -13 -13 -13 -13 -13 -13 -13 -13 -13 -13 -13 -13 -13 -13 -13 -13 -13 -13 -13 -13 -13 -13 -12 -12 -12 -12 -12 -12 -12 -12 -12 -12 -12 -13 -13 -12 -13 -13 -13 -13
-14 -14 -14 -14 -14 -13 -13 -13 -13 -14 -13 -13 -13 -13 -13 -13 -13 -13 -13 -13 -13 -13 -13 -13 -13 -13 -13 -13 -12 -12 -12 -12 -12 -12 -13 -13 -13 -13 -13 -13 -13 -13 -13
-14 -14 -14 -14 -14 -14 -13 -14 -13 -14 -13 -13 -13 -13 -13 -13 -13 -13 -13 -13 -13 -14 -14 -13 -13 -13 -13 -13 -13 -13 -13 -13 -13 -13 -13 -13 -13 -13 -13 -13 -13 -13 -13
-14 -14 -14 -14 -14 -14 -14 -14 -14 -14 -14 -13 -13 -14 -14 -14 -14 -14 -14 -14 -14 -14 -14 -14 -14 -13 -13 -13 -13 -13 -13 -13 -13 -13 -13 -13 -13 -13 -13 -13 -13 -13 -13
-14 -14 -15 -15 -15 -14 -14 -14 -14 -14 -14 -13 -14 -14 -14 -14 -14 -14 -14 -14 -14 -14 -14 -14 -14 -14 -14 -14 -14 -14 -14 -13 -13 -13 -13 -13 -13 -13 -13 -13 -13 -13 -13
-15 -15 -15 -15 -15 -15 -15 -14 -14 -14 -14 -14 -14 -14 -14 -14 -14 -14 -14 -14 -14 -14 -14 -14 -14 -14 -14 -14 -14 -14 -14 -14 -14 -14 -14 -14 -13 -13 -13 -13 -13 -13 -13
-15 -15 -15 -15 -15 -15 -15 -15 -15 -15 -14 -15 -15 -15 -14 -14 -14 -14 -14 -14 -14 -14 -14 -14 -14 -14 -14 -14 -14 -14 -14 -14 -14 -14 -14 -14 -14 -14 -14 -14 -13 -13 -13
Height
5834 5837 5840 5844 5846 5850 5853 5857 5859 5862 5865 5867 5870 5873 5875 5878 5880 5882 5884 5886 5888 5890 5892 5893 5895 5896 5898 5899 5901 5903 5904 5906 5907 5908 5909 5908 5910 5910 5911 5913 5913 5913 5914
5830 5835 5838 5841 5844 5847 5851 5854 5857 5860 5862 5865 5867 5871 5873 5876 5878 5880 5882 5884 5887 5888 5891 5893 5895 5897 5898 5899 5900 5902 5904 5905 5907 5908 5909 5909 5910 5911 5912 5913 5913 5914 5914
5829 5832 5835 5839 5842 5845 5848 5851 5854 5857 5859 5863 5865 5869 5871 5874 5877 5879 5881 5883 5885 5887 5889 5892 5894 5896 5898 5899 5901 5902 5904 5905 5907 5908 5909 5910 5911 5912 5912 5912 5913 5914 5915
5826 5830 5833 5836 5839 5842 5845 5848 5852 5854 5857 5860 5863 5866 5869 5872 5876 5878 5880 5881 5884 5886 5889 5891 5893 5895 5897 5899 5900 5902 5904 5905 5906 5907 5909 5910 5911 5912 5913 5913 5914 5914 5915
5821 5826 5830 5833 5837 5840 5842 5846 5850 5852 5854 5857 5861 5864 5867 5870 5873 5876 5878 5880 5883 5885 5888 5889 5892 5894 5895 5897 5899 5901 5903 5905 5906 5908 5909 5909 5910 5911 5912 5913 5914 5914 5915
5819 5822 5826 5830 5834 5837 5840 5843 5846 5850 5852 5855 5858 5861 5865 5868 5870 5873 5875 5878 5881 5883 5885 5888 5889 5891 5893 5895 5897 5899 5901 5903 5905 5906 5907 5909 5909 5910 5911 5912 5913 5914 5915
5815 5818 5822 5826 5829 5834 5837 5840 5843 5846 5849 5852 5856 5859 5862 5865 5868 5870 5873 5875 5878 5881 5883 5884 5886 5889 5891 5893 5895 5897 5899 5901 5903 5904 5906 5907 5908 5909 5909 5910 5912 5912 5913
5810 5813 5818 5822 5826 5830 5834 5838 5840 5843 5846 5849 5853 5856 5859 5862 5865 5868 5870 5873 5875 5877 5879 5882 5884 5886 5888 5890 5892 5894 5896 5898 5900 5902 5904 5905 5906 5907 5908 5909 5910 5911 5911
5806 5811 5815 5819 5823 5827 5830 5834 5838 5841 5843 5846 5851 5854 5857 5859 5862 5865 5867 5870 5873 5875 5877 5879 5880 5883 5884 5885 5887 5890 5892 5894 5897 5900 5902 5903 5904 5905 5906 5906 5907 5908 5910
5802 5807 5812 5816 5821 5824 5828 5832 5835 5838 5841 5845 5849 5851 5855 5857 5859 5862 5864 5867 5870 5872 5874 5876 5877 5879 5880 5881 5884 5885 5888 5891 5894 5897 5899 5901 5901 5902 5902 5903 5905 5906 5908
5797 5802 5808 5813 5817 5821 5825 5829 5833 5835 5840 5842 5846 5850 5853 5856 5857 5859 5861 5864 5867 5869 5872 5873 5874 5876 5878 5878 5880 5882 5884 5888 5890 5893 5896 5898 5898 5900 5902 5902 5903 5904 5905
5794 5800 5805 5810 5814 5817 5821 5825 5829 5833 5838 5842 5845 5847 5851 5852 5855 5858 5859 5862 5865 5867 5869 5871 5873 5874 5875 5875 5877 5880 5881 5882 5886 5890 5893 5895 5894 5898 5899 5900 5901 5902 5903
5790 5794 5801 5805 5810 5814 5818 5822 5826 5830 5835 5839 5843 5845 5848 5850 5854 5856 5858 5861 5863 5865 5867 5869 5870 5872 5873 5873 5875 5877 5878 5879 5880 5885 5888 5890 5893 5895 5897 5898 5900 5900 5901
5782 5788 5795 5800 5805 5810 5814 5819 5823 5827 5832 5836 5839 5842 5845 5849 5852 5854 5857 5859 5862 5864 5865 5868 5869 5870 5871 5874 5874 5876 5877 5878 5880 5882 5885 5888 5890 5893 5895 5896 5897 5898 5898
5775 5783 5790 5796 5801 5806 5810 5816 5819 5823 5828 5832 5835 5839 5842 5846 5849 5852 5855 5858 5860 5863 5864 5865 5868 5869 5870 5872 5872 5873 5876 5877 5879 5882 5884 5886 5888 5890 5893 5894 5894 5895 5895
5770 5777 5784 5789 5795 5800 5805 5811 5816 5820 5824 5828 5832 5835 5839 5843 5846 5850 5852 5855 5858 5860 5862 5864 5865 5867 5868 5870 5872 5871 5872 5875 5877 5881 5881 5884 5885 5888 5890 5892 5892 5893 5892
5764 5771 5777 5784 5789 5794 5798 5805 5810 5816 5820 5825 5828 5831 5836 5840 5843 5846 5850 5852 5855 5858 5860 5863 5864 5865 5866 5867 5869 5870 5872 5874 5877 5879 5880 5883 5884 5886 5889 5890 5892 5891 5888
5755 5764 5770 5777 5783 5789 5793 5798 5804 5811 5816 5820 5824 5828 5831 5835 5839 5843 5846 5849 5852 5855 5858 5860 5862 5863 5864 5865 5867 5869 5870 5871 5874 5876 5878 5880 5882 5884 5887 5888 5891 5885 5885
5747 5755 5763 5772 5778 5783 5787 5792 5798 5804 5810 5814 5819 5824 5827 5832 5835 5840 5843 5846 5849 5852 5855 5857 5859 5861 5862 5863 5865 5866 5867 5869 5871 5874 5876 5878 5879 5880 5883 5885 5886 5887 5885
5739 5747 5756 5764 5770 5775 5781 5787 5793 5797 5802 5807 5813 5819 5823 5827 5831 5835 5838 5842 5845 5848 5851 5854 5856 5858 5860 5860 5862 5864 5865 5867 5869 5871 5872 5875 5876 5877 5879 5881 5882 5883 5883
5730 5739 5747 5755 5762 5769 5774 5780 5786 5792 5798 5804 5809 5814 5819 5822 5826 5830 5833 5837 5840 5843 5846 5849 5852 5854 5856 5858 5860 5861 5863 5865 5866 5868 5869 5871 5872 5874 5875 5877 5878 5878 5879
5721 5731 5739 5748 5756 5762 5768 5775 5782 5788 5794 5799 5804 5808 5812 5817 5821 5825 5828 5832 5835 5838 5842 5845 5847 5850 5852 5854 5856 5858 5860 5862 5863 5864 5866 5866 5868 5870 5871 5872 5874 5874 5874
5712 5722 5733 5742 5749 5755 5761 5768 5775 5780 5785 5791 5796 5802 5807 5812 5816 5819 5823 5826 5830 5833 5836 5839 5842 5844 5846 5849 5851 5853 5855 5857 5858 5859 5860 5861 5863 5865 5866 5867 5868 5869 5869
5704 5714 5725 5732 5740 5747 5755 5762 5769 5776 5783 5789 5793 5797 5802 5805 5809 5813 5816 5820 5823 5826 5829 5833 5835 5838 5840 5842 5844 5845 5848 5851 5852 5853 5854 5855 5856 5858 5860 5861 5861 5862 5862
5697 5705 5716 5723 5730 5739 5746 5754 5760 5766 5773 5777 5784 5789 5793 5798 5802 5806 5810 5813 5816 5819 5822 5825 5827 5831 5834 5836 5837 5840 5841 5843 5845 5847 5848 5849 5850 5851 5852 5853 5855 5855 5855
5689 5697 5705 5714 5722 5730 5737 5745 5750 5757 5763 5769 5774 5780 5785 5790 5794 5798 5802 5806 5808 5812 5815 5817 5819 5822 5826 5828 5830 5833 5835 5836 5838 5840 5842 5843 5844 5845 5846 5846 5846 5847 5847
Wind_Speed
20 19 19 19 19 19 19 22 23 23 22 21 20 19 18 16 14 12 11 11 12 12 12 10 9 8 9 10 10 10 9 9 8 8 9 9 9 9 8 8 8 8 8
19 19 20 19 19 18 19 21 22 22 22 23 22 20 19 18 16 14 12 11 12 12 12 11 10 9 8 10 10 10 10 9 8 8 8 8 8 8 8 7 7 8 7
18 18 20 21 20 20 20 21 21 21 20 19 20 20 20 18 17 15 13 12 11 11 12 11 11 10 10 9 9 10 11 10 10 8 8 7 7 7 7 7 7 8 7
20 20 21 21 21 21 21 21 21 20 20 20 19 19 19 19 18 16 15 15 12 12 10 10 12 12 12 13 11 10 11 12 11 10 10 9 9 7 7 7 7 6 5
24 22 22 22 21 21 20 19 19 19 20 20 19 19 17 17 17 17 16 15 15 13 12 12 11 12 14 14 14 14 12 12 13 12 11 11 10 9 9 9 8 7 6
22 23 23 23 22 21 22 21 20 19 19 19 19 18 17 14 14 15 16 16 15 15 15 13 13 14 13 15 16 17 17 16 15 13 13 12 11 11 11 10 10 10 10
21 26 26 25 24 22 23 23 22 22 21 21 22 20 19 18 16 15 15 16 17 18 18 17 16 15 16 17 17 17 18 19 18 16 15 15 14 14 13 13 12 12 11
25 27 28 28 26 24 23 23 22 22 22 22 22 20 19 19 19 19 19 17 14 16 19 17 16 14 18 21 20 21 20 20 20 20 19 18 17 16 15 15 15 14 13
25 26 28 29 28 25 23 23 22 21 20 20 18 17 17 18 19 21 22 22 20 14 13 14 17 17 9 11 24 25 24 23 23 21 20 20 18 16 17 17 17 17 15
26 27 29 30 27 26 23 23 22 21 21 20 18 17 16 15 15 19 20 20 22 20 18 16 16 17 16 16 15 23 30 19 23 21 21 22 21 19 16 14 14 13 12
28 29 29 31 30 27 25 24 22 22 22 21 19 15 15 13 12 17 16 16 18 17 18 16 14 10 11 14 9 17 30 29 25 23 21 19 17 18 16 15 14 12 12
29 25 28 29 30 29 28 25 25 24 23 22 20 19 18 14 13 13 14 13 14 14 13 14 12 10 8 3 3 5 11 30 30 23 21 17 20 19 17 15 13 13 13
29 27 26 29 28 30 28 27 25 25 24 23 21 20 19 14 16 17 14 12 11 11 11 11 10 9 9 8 15 14 13 10 16 13 19 22 21 18 15 12 11 11 12
34 29 30 29 28 30 29 27 28 28 27 26 24 22 20 17 19 17 14 12 10 11 10 10 8 7 9 12 13 11 12 15 12 12 10 18 16 17 14 14 14 15 16
39 33 30 30 27 29 30 28 30 31 30 28 27 26 23 20 19 18 18 16 13 11 10 8 8 8 9 9 9 10 10 12 13 14 15 17 17 15 14 12 11 9 9
39 37 34 34 31 32 33 31 32 32 31 30 29 28 26 23 20 19 18 18 16 14 11 9 7 6 7 8 8 6 7 9 10 11 10 13 14 15 16 13 14 11 9
43 40 38 37 36 35 35 34 34 34 33 31 30 28 25 23 21 19 19 18 19 18 15 12 8 7 7 6 5 6 6 7 9 8 10 10 10 9 10 10 8 13 16
47 44 42 41 39 38 36 36 36 34 34 33 32 30 27 25 23 22 21 21 21 20 18 15 14 12 11 10 9 9 8 7 9 10 13 12 10 11 13 13 10 9 6
50 47 45 43 42 41 39 38 38 36 34 34 34 32 29 27 25 25 24 23 23 21 21 20 16 15 13 13 13 12 12 11 12 11 16 18 15 14 15 16 18 18 12
53 50 47 45 45 44 42 41 39 38 38 36 33 31 30 29 29 28 27 25 24 22 22 21 20 18 16 15 14 12 12 13 13 13 15 14 15 15 16 18 19 20 22
55 53 50 48 46 45 45 43 42 41 38 35 32 30 29 29 29 28 27 27 26 25 24 23 22 20 19 18 18 16 15 15 14 16 17 17 17 17 18 18 20 22 24
59 56 54 52 49 47 46 44 42 39 37 36 34 32 31 31 30 29 28 27 26 26 25 24 23 23 23 22 21 20 19 19 19 19 19 20 19 18 19 20 21 23 25
62 59 56 55 52 51 49 47 45 45 44 42 40 37 34 31 30 29 28 28 28 27 27 26 26 27 26 25 26 25 24 23 23 22 23 24 23 23 23 24 24 25 27
65 63 58 56 54 53 51 49 47 44 41 39 38 37 34 34 33 33 31 30 30 30 29 28 29 29 29 28 27 27 27 26 25 24 24 26 26 25 25 27 27 28 30
64 65 62 60 57 54 53 51 50 48 47 46 43 39 39 37 36 35 34 33 34 34 32 32 33 32 30 30 29 26 25 25 25 25 25 25 26 27 27 27 27 29 31
61 63 64 64 61 59 57 55 55 53 52 52 49 48 44 41 39 38 37 36 37 37 35 36 37 35 33 31 30 28 28 29 29 28 27 28 29 29 29 30 31 32 33
Wind_Direction
231 223 210 205 207 206 202 206 211 211 209 207 207 206 205 203 196 190 184 186 185 185 190 188 186 176 175 175 175 172 161 158 156 152 150 141 148 142 131 127 125 121 115
227 222 213 208 206 204 204 205 208 213 213 211 207 206 207 204 205 202 199 196 193 193 196 193 193 197 182 188 180 179 176 169 166 166 164 159 152 155 150 144 138 127 124
226 219 214 208 209 208 205 204 204 207 207 208 206 207 206 205 207 206 209 212 202 200 201 198 193 199 201 200 194 190 186 185 189 189 183 175 173 159 155 150 151 140 137
217 221 219 211 210 213 208 205 205 203 205 206 206 206 207 207 208 209 215 218 211 204 203 202 200 197 197 205 208 207 199 197 198 199 202 199 200 193 179 168 166 164 164
211 215 217 211 208 206 199 197 199 201 203 203 205 207 207 207 209 211 214 217 218 218 206 207 211 216 204 203 210 218 216 209 209 209 208 207 201 201 202 199 202 199 195
215 209 209 210 209 207 198 197 195 199 201 202 203 204 200 198 200 209 210 214 213 217 220 221 219 216 221 217 211 216 219 220 218 216 212 212 212 209 210 211 206 210 212
216 212 209 209 208 209 203 200 201 206 210 211 214 212 210 205 202 203 206 212 216 216 223 223 225 229 228 228 223 217 221 223 223 220 220 218 215 215 212 214 215 215 217
215 214 212 212 209 209 208 206 211 213 215 218 220 216 214 210 208 209 211 215 218 224 228 229 230 236 244 235 231 226 222 224 223 223 224 224 222 220 220 220 221 221 222
218 217 214 213 212 210 208 209 212 211 208 205 207 203 206 209 212 217 219 220 227 217 218 227 237 234 224 221 235 233 228 221 220 219 222 228 225 221 226 224 225 220 221
216 218 215 214 213 211 208 209 209 207 205 198 193 189 194 199 208 219 220 219 227 226 230 243 249 254 281 276 256 233 230 224 213 214 218 225 220 218 225 233 239 224 230
217 218 218 218 214 211 209 209 206 205 199 188 186 181 184 209 221 209 212 221 225 225 230 243 254 253 277 292 317 239 229 221 217 219 222 227 226 227 233 240 246 258 246
221 223 222 221 217 212 207 205 203 203 194 186 182 181 189 196 194 190 203 213 217 223 228 233 232 229 245 254 221 258 236 215 220 223 228 230 230 230 229 235 240 246 247
225 224 221 218 216 212 207 205 202 198 189 187 188 191 193 188 175 180 201 209 207 203 209 215 221 213 190 173 190 200 205 226 204 213 226 235 217 220 224 221 230 236 243
219 214 214 214 211 212 209 206 199 194 191 193 192 198 197 188 184 187 191 198 196 181 194 202 191 183 184 196 202 213 210 203 225 216 214 212 214 218 226 244 253 256 260
213 212 211 211 210 210 210 206 201 198 195 197 198 202 200 198 192 189 188 193 195 198 195 189 194 195 202 207 208 215 218 219 213 214 211 214 219 227 239 250 262 263 267
216 213 211 207 205 205 207 204 208 206 203 204 204 205 207 204 202 199 193 194 201 208 203 194 189 203 212 198 197 209 203 210 203 212 212 225 231 235 232 239 251 252 237
215 216 216 207 203 203 206 205 207 211 210 210 208 209 210 208 210 205 201 201 206 210 216 222 222 224 235 242 229 196 202 205 217 212 217 209 214 209 212 218 235 273 255
214 215 216 211 205 202 203 205 207 211 213 215 214 211 213 213 213 211 207 207 211 214 224 233 238 246 254 251 250 242 225 214 228 206 198 225 228 214 217 219 226 199 356
213 214 214 215 209 207 204 203 205 208 211 215 216 216 215 215 215 214 216 215 219 224 223 226 236 242 245 252 248 248 247 239 234 221 221 232 239 235 237 235 238 243 236
212 211 213 212 211 207 207 208 207 209 209 213 213 215 214 215 217 217 217 221 222 225 228 230 232 236 240 243 248 247 248 247 249 243 244 240 239 241 246 243 244 242 242
215 213 211 212 210 209 210 208 208 211 210 211 213 213 213 215 217 217 220 221 222 226 232 235 237 236 237 237 236 236 239 244 245 249 248 246 244 243 245 245 245 246 244
218 215 211 211 210 212 213 212 212 214 214 213 215 216 217 218 219 221 224 224 226 229 235 241 244 246 244 243 243 240 240 240 242 246 251 257 257 254 254 257 257 258 261
218 217 214 214 213 214 215 216 214 214 214 214 215 218 221 222 223 225 227 230 232 234 236 241 246 250 254 254 252 250 248 250 251 252 251 253 254 256 258 259 260 262 265
217 218 215 215 217 218 220 220 221 221 223 222 222 223 223 225 226 230 232 236 239 241 242 244 247 248 253 255 258 259 258 258 257 255 255 256 257 256 257 258 261 264 267
220 219 218 218 217 219 219 222 225 226 222 221 223 225 226 227 230 232 235 239 243 246 248 250 251 252 251 251 253 252 256 258 258 258 256 258 263 267 268 266 265 267 269
218 220 220 221 222 222 222 223 227 227 228 224 221 223 227 227 230 234 236 241 246 248 250 254 254 253 252 254 246 248 258 258 257 259 261 263 265 267 268 269 271 274 276